Location: Sungai Laei
(2.6000°N, 113.7167°E)
Time: 04:27:45
(UTC+00:00)

COSMOS 1275 DEB - Visible Passes

Search period start: 28 January 2023 00:00
Search period end: 07 February 2023 00:00
Orbit: 909 x 1084 km, 83.0° (Epoch: 25 January)

Date Brightness Start Highest point End Pass type
(mag) Time Alt. Az. Time Alt. Az. Time Alt. Az.
03 Feb ? 13:01:42 10° S 13:03:01 17° S 13:03:01 17° S visible
04 Feb ? 13:33:28 10° SSW 13:35:12 19° SSW 13:35:12 19° SSW visible
05 Feb ? 12:19:56 10° SSE 12:22:17 22° SE 12:22:17 22° SE visible
05 Feb ? 14:06:46 10° SW 14:07:27 12° SW 14:07:27 12° SW visible
06 Feb ? 12:50:45 10° S 12:54:39 41° S 12:54:39 41° S visible
